OpenBCM V1.13 (Linux)

Packet Radio Mailbox

DB0FHN

[JN59NK Nuernberg]

 Login: GUEST





  
LU9DCE > KEPLER   14.02.19 21:34l 248 Lines 12153 Bytes #999 (0) @ WW
BID : 18597_LU9DCE
Read: GUEST DK3UZ
Subj: TLE 14 02
Path: DB0FHN<DB0BLO<DB0ERF<OK0NAG<OK0NBR<OK2PEN<N3HYM<LU9DCE
Sent: 190214/1859Z 18597@LU9DCE.TOR.BA.ARG.SOAM BPQK6.0.18

            __    _  _  ___  ____   ___  ____    ____  ____  ____
           (  )  / )( \/ _ \(    \ / __)(  __)  (  _ \(  _ \/ ___)
           / (_/\) \/ (\__  )) D (( (__  ) _)    ) _ ( ) _ (\___ \
           \____/\____/(___/(____/ \___)(____)  (____/(____/(____/
               ESTACION DE PACKET RADIO - BUENOS AIRES (GF05OM)
                   BOLETINES INFORMATIVOS PROGRAMADOS (BIP)
                          CASTILLOEDUARDO@ZOHO.COM

+----------------------------------------------------------------------------+
OSCAR 7
1  7530U 74089B   19044.88716024 -.00000017 +00000-0 +17540-3 0  9996
2  7530 101.7268 013.9152 0011858 227.5488 157.6172 12.53636740024644
OSCAR 11 (UoSAT 2)
1 14781U 84021B   19044.95020389 +.00000047 +00000-0 +11952-4 0  9993
2 14781 097.6244 075.4793 0008826 019.4409 340.7140 14.83063312859272
OSCAR 19 (LUSAT)
1 20442U 90005G   19044.88764540 -.00000011 +00000-0 +12289-4 0  9995
2 20442 098.6364 347.1854 0012203 152.5473 207.6358 14.32917035518445
EYESAT A
1 22825U 93061C   19045.44859085  .00000004  00000-0  19604-4 0  9998
2 22825  98.8925  31.3194 0008532   8.2215 351.9105 14.30051158324190
ITAMSAT
1 22826U 93061D   19044.91956324 +.00000005 +00000-0 +19632-4 0  9996
2 22826 098.8865 030.7863 0008888 358.4907 001.6247 14.30383977324061
RADIO ROSTO
1 23439U 94085A   19044.93038747 -.00000034 +00000-0 +23269-3 0  9999
2 23439 064.8190 317.8845 0149000 137.1550 323.2289 11.27567617993826
JAS 2
1 24278U 96046B   19044.73196364 -.00000014  00000-0  22430-4 0  9996
2 24278  98.5178 215.2086 0350001 204.0017 154.4463 13.53088900110905
TECHSAT 1B
1 25397U 98043D   19045.08142338 -.00000017  00000-0  11621-4 0  9992
2 25397  98.6770 346.8193 0002182  61.1798 298.9599 14.23660120 70142
ISS (ZARYA)
1 25544U 98067A   19045.61311128  .00000862  00000-0  20870-4 0  9999
2 25544  51.6406 250.7538 0005654  28.2283  34.9195 15.53260140156212
PCSAT
1 26931U 01043C   19045.19255479 -.00000033  00000-0  19078-4 0  9996
2 26931  67.0528 324.9459 0005384 269.4815  90.5670 14.30531995907162
SAUDISAT 1C
1 27607U 02058C   19045.17857408 -.00000026  00000-0  17212-4 0  9992
2 27607  64.5544  70.2714 0081960 280.1676  79.0189 14.75519683868664
CUTE-1
1 27844U 03031E   19044.49178072  .00000043  00000-0  39039-4 0  9993
2 27844  98.6865  54.5628 0010438  38.7784 321.4141 14.22159701810492
CUBESAT XI 4
1 27848U 03031J   19044.94102198 +.00000034 +00000-0 +35298-4 0  9996
2 27848 098.6945 055.4758 0010473 047.9373 312.2694 14.21757478810387
MOZHAYETS 4
1 27939U 03042A   19045.41394679  .00000101  00000-0  26707-4 0  9999
2 27939  98.0190 183.8036 0014299 100.2690 260.0138 14.66753419822324
CUBESAT XI 5
1 28895U 05043F   19044.95037669 +.00000114 +00000-0 +30762-4 0  9995
2 28895 097.9380 192.1055 0017306 029.8966 330.3221 14.63630135709002
CUTE-1.7+APD II
1 32785U 08021C   19045.16945135  .00000187  00000-0  25896-4 0  9999
2 32785  97.5478  50.7763 0012083 321.3249  38.7102 14.88249074585166
DELFI C3
1 32789U 08021G   19044.57240056 +.00001103 +00000-0 +78374-4 0  9995
2 32789 097.4819 097.9231 0012279 186.5983 173.5085 15.06647459588020
SEEDS
1 32791U 08021J   19044.99354588  .00000252  00000-0  31059-4 0  9993
2 32791  97.5300  56.4281 0011994 296.2946  63.7040 14.90733028585539
YUBELEINY
1 32953U 08025A   19045.29679671  .00000020  00000-0  75656-4 0  9998
2 32953  82.4998 222.1002 0019653  42.9549 317.3058 12.43087475486859
PRISM (HITOMI)
1 33493U 09002B   19040.22106459 -.00000064  00000-0  27954-7 0  9991
2 33493  98.1216 316.2721 0014333 254.3196 105.6442 14.96497907545795
KKS-1 (KISEKI)
1 33499U 09002H   19044.89006748 +.00000083 +00000-0 +20375-4 0  9991
2 33499 098.3544 239.5593 0008116 240.2123 119.8278 14.75406047540394
SWISSCUBE
1 35932U 09051B   19044.95868150  .00000105  00000-0  34784-4 0  9993
2 35932  98.5713 207.3825 0007709 180.3335 179.7857 14.56243685498627
BEESAT
1 35933U 09051C   19045.03821678  .00000086  00000-0  30488-4 0  9993
2 35933  98.5747 209.1574 0005657 190.6400 169.4678 14.56337951498743
ITUPSAT 1
1 35935U 09051E   19045.43673626  .00000079  00000-0  29318-4 0  9999
2 35935  98.5859 209.8124 0008032 188.8490 171.2566 14.55503861498566
XIWANG-1 (HOPE-1)
1 36122U 09072B   19045.08797960 -.00000050  00000-0 -20078-4 0  9995
2 36122 100.0718  53.3309 0006865 274.5905  85.4425 13.16348120440480
TISAT 1
1 36799U 10035E   19044.92913720 +.00000238 +00000-0 +30172-4 0  9994
2 36799 098.1358 193.0914 0013392 131.8865 228.3497 14.91002785465970
JUGNU
1 37839U 11058B   19043.22972219  .00000297  00000-0  16571-4 0  9998
2 37839  19.9626  21.6531 0018904  13.7594  67.0946 14.12641398379352
SRMSAT
1 37841U 11058D   19045.43807142  .00000270  00000-0  30717-5 0  9998
2 37841  19.9729  62.4643 0011616 271.9059 201.4484 14.10624185379122
M-CUBED/EXP-1 PRIME
1 37855U 11061F   19044.77002282 +.00000814 +00000-0 +48812-4 0  9993
2 37855 101.7274 236.1475 0174481 086.9623 275.1538 15.05134476397511
HORYU 2
1 38340U 12025D   19045.08477127  .00000146  00000-0  29437-4 0  9993
2 38340  98.3451  79.8328 0012142 155.7654 204.4128 14.75666571362785
STRAND 1
1 39090U 13009E   19044.84306720  .00000023  00000-0  23180-4 0  9995
2 39090  98.4993 252.7987 0008233 304.2648  55.7757 14.35070526312485
SOMP
1 39134U 13015E   19044.87659348 +.00001107 +00000-0 +60687-4 0  9998
2 39134 064.8629 064.7069 0018915 321.3208 038.6563 15.19809056321249
BEESAT 3
1 39135U 13015F   19045.43684468  .00000803  00000-0  50019-4 0  9993
2 39135  64.8700  79.4816 0010131 274.5525  85.4443 15.17203004321398
BEESAT 2
1 39136U 13015G   19045.23008420  .00000784  00000-0  49846-4 0  9994
2 39136  64.8686  83.5972 0010595 287.9395  72.0575 15.16635366321294
CUBEBUG 1
1 39153U 13018D   19045.20580975  .00000161  00000-0  27946-4 0  9999
2 39153  97.9763 144.0753 0015832 239.3979 120.5672 14.80511610313398
ZACUBE
1 39417U 13066B   19044.92247484 +.00000200 +00000-0 +31452-4 0  9999
2 39417 097.5701 065.3889 0060490 083.3263 277.4830 14.81053658282574
TRITON 1
1 39427U 13066M   19044.90861108 +.00000121 +00000-0 +27443-4 0  9990
2 39427 097.6632 030.0988 0113255 204.4112 155.1707 14.67779545279840
GOMX 1
1 39430U 13066Q   19045.30361585  .00000158  00000-0  38031-4 0  9998
2 39430  97.7301  10.1700 0149947 286.7940  71.6861 14.59196961278464
HUMSAT D
1 39433U 13066T   19045.15096214  .00000506  00000-0  54775-4 0  9998
2 39433  97.5723  97.6320 0030614 359.0782   1.0376 14.92081117284502
CUBEBUG 2
1 39440U 13066AA  19045.47332256  .00000181  00000-0  31978-4 0  9999
2 39440  97.6001  51.2657 0081540 127.9040 232.9580 14.75792127281658
FUNCUBE 1
1 39444U 13066AE  19045.05888943  .00000248  00000-0  36717-4 0  9996
2 39444  97.5693  67.3343 0059580  77.4605 283.3265 14.81859819281472
UWE-3
1 39446U 13066AG  19044.94569495 +.00000182 +00000-0 +30708-4 0  9994
2 39446 097.5838 057.6150 0071553 106.8292 254.0784 14.78326631280248
SPROUT
1 39770U 14029E   19045.36696903  .00000445  00000-0  55606-4 0  9992
2 39770  97.8788 149.5496 0009929 129.9812 230.2272 14.87173377256351
UNISAT 6
1 40012U 14033C   19045.44415548  .00000143  00000-0  28611-4 0  9992
2 40012  97.7758 277.2652 0059279 137.5857 222.9956 14.73925677250385
DUCHIFAT 1
1 40021U 14033M   19044.75039952  .00000339  00000-0  40568-4 0  9998
2 40021  97.9218 328.9624 0014307 100.5810 259.7020 14.90520581252930
QB50P1
1 40025U 14033R   19044.83378837  .00000217  00000-0  29165-4 0  9994
2 40025  97.9068 324.7234 0013800 108.0558 252.2164 14.88865235252748
CHUBUSAT 1
1 40300U 14070C   19045.26053846  .00000615  00000-0  29870-4 0  9994
2 40300  97.3398 122.5279 0020949 129.0977 268.2638 15.21909184237091
NUDT-PHONESAT
1 40900U 15049B   19045.49904888  .00001719  00000-0  77695-4 0  9997
2 40900  97.4405  56.0835 0011388 258.8663 224.6998 15.22262970188766
ZDPS 2A
1 40901U 15049C   19045.26306154  .00000782  00000-0  42334-4 0  9996
2 40901  97.4605  52.9028 0011924 278.0273 204.5048 15.17501427188361
ZDPS 2B
1 40902U 15049D   19045.46950086  .00000868  00000-0  46909-4 0  9995
2 40902  97.4532  50.7688 0012073 274.7508 212.7407 15.17279828188377
XW-2A
1 40903U 15049E   19045.41202878  .00001493  00000-0  37789-4 0  9991
2 40903  97.3554  87.3844 0012145 231.5351 224.6439 15.41358683191104
KAITUO 1A
1 40904U 15049F   19045.46456509  .00000465  00000-0  28230-4 0  9998
2 40904  97.4649  49.6256 0013174 280.8519 225.7262 15.15245527188188
OBJECT G
1 40905U 15049G   19045.45411799  .00000381  00000-0  24463-4 0  9991
2 40905  97.4672  47.3246 0014011 273.4724 215.1922 15.14181280188074
XW-2C
1 40906U 15049H   19045.42074006  .00000659  00000-0  38224-4 0  9993
2 40906  97.4661  49.5887 0013252 271.4414 223.0264 15.15506041188173
XW-2D
1 40907U 15049J   19045.47697536  .00000784  00000-0  44605-4 0  9997
2 40907  97.4632  49.3215 0012605 268.6951 213.6024 15.15681624188192
LILACSAT 2
1 40908U 15049K   19045.45933837  .00000403  00000-0  25990-4 0  9997
2 40908  97.4759  48.3385 0014315 273.3806 216.5522 15.13701848188017
XW-2F
1 40910U 15049M   19045.42293132  .00000947  00000-0  51200-4 0  9990
2 40910  97.4618  51.0241 0013238 262.8186 232.3175 15.17027354188177
XW-2B
1 40911U 15049N   19045.36933198  .00000359  00000-0  22347-4 0  9994
2 40911  97.4663  49.8341 0012542 269.6420 197.7031 15.15613339188073
KAITUO 1B
1 40912U 15049P   19045.37278339  .00000863  00000-0  44080-4 0  9993
2 40912  97.4511  54.3572 0013540 244.4487 222.6212 15.19303528188435
TIANWANG 1C (TW-1C)
1 40926U 15051B   19045.20015067  .00008545  00000-0  13809-3 0  9999
2 40926  97.1546  91.6479 0010522 107.8471 293.0468 15.53041219190822
